This demonstration page uses our WeatherBlox Daily Observations layout. Learn more.

Left ArrowRight Arrow

34.16533, -84.80231

Hourly Observations for February 20, 2022

Temp ( °F °C ) Dew Point ( °F °C ) Humidity (%) Winds ( mph kmh ) Pressure ( in mb ) Visibility ( mi km ) Precip ( " mm )
10:00 am 10:00 undefined N/A N/A N/A E 9 15 N/A N/A 0.00 0.00
10:15 am 10:15 undefined 46 8 19 -7 34 34 E 9 15 30.47 1032 10 16 0.00 0.00
10:35 am 10:35 Sunny 48 9 18 -8 29 29 ESE 8 13 30.46 1032 10 16 0.00 0.00
10:55 am 10:55 Sunny 50 10 16 -9 25 25 ESE 8 13 30.45 1031 10 16 0.00 0.00
11:15 am 11:15 Sunny 50 10 14 -10 24 24 VRB 7 11 30.45 1031 10 16 0.00 0.00
11:35 am 11:35 Sunny 52 11 16 -9 24 24 E 9 15 30.44 1031 10 16 0.00 0.00
11:55 am 11:55 Sunny 54 12 14 -10 21 21 ESE 9 15 30.43 1031 10 16 0.00 0.00
12:15 pm 12:15 Sunny 55 13 14 -10 19 19 VRB 7 11 30.42 1030 10 16 0.00 0.00
12:35 pm 12:35 Sunny 55 13 16 -9 21 21 VRB 8 13 30.40 1030 10 16 0.00 0.00
12:55 pm 12:55 Sunny 57 14 14 -10 18 18 SE 8 13 30.39 1029 10 16 0.00 0.00
1:15 pm 13:15 Sunny 57 14 14 -10 18 18 SSE 7 11 30.38 1029 10 16 0.00 0.00
1:35 pm 13:35 Sunny 57 14 14 -10 18 18 VRB 5 7 30.36 1028 10 16 0.00 0.00
1:55 pm 13:55 Sunny 57 14 16 -9 20 20 VRB 7 11 30.34 1027 10 16 0.00 0.00
2:15 pm 14:15 Sunny 57 14 14 -10 18 18 E 9 15 30.34 1027 10 16 0.00 0.00
2:35 pm 14:35 Sunny 59 15 16 -9 18 18 SSE 8 13 30.33 1027 10 16 0.00 0.00
2:55 pm 14:55 Sunny 61 16 16 -9 17 17 VRB 6 9 30.31 1027 10 16 0.00 0.00
3:15 pm 15:15 Hazy 61 16 16 -9 17 17 VRB 7 11 30.30 1026 2 3 0.00 0.00
3:35 pm 15:35 Sunny 61 16 16 -9 17 17 ESE 8 13 30.29 1026 10 16 0.00 0.00
3:55 pm 15:55 Sunny 61 16 16 -9 17 17 VRB 6 9 30.30 1026 10 16 0.00 0.00
4:15 pm 16:15 Sunny 61 16 16 -9 17 17 SSE 13 20 30.28 1025 10 16 0.00 0.00
4:35 pm 16:35 Sunny 61 16 18 -8 19 19 SE 9 15 30.28 1025 10 16 0.00 0.00
4:55 pm 16:55 Sunny 61 16 18 -8 19 19 VRB 5 7 30.28 1025 10 16 0.00 0.00
5:15 pm 17:15 Sunny 61 16 18 -8 19 19 SSE 8 13 30.27 1025 10 16 0.00 0.00
5:35 pm 17:35 Sunny 61 16 18 -8 19 19 VRB 5 7 30.27 1025 10 16 0.00 0.00
5:55 pm 17:55 Sunny 59 15 19 -7 21 21 VRB 6 9 30.28 1025 10 16 0.00 0.00
6:15 pm 18:15 Sunny 59 15 19 -7 21 21 VRB 5 7 30.28 1025 10 16 0.00 0.00
6:35 pm 18:35 Clear 55 13 19 -7 24 24 VRB 5 7 30.28 1025 10 16 0.00 0.00
6:55 pm 18:55 Clear 55 13 19 -7 24 24 Calm 30.28 1025 10 16 0.00 0.00
7:15 pm 19:15 Clear 54 12 21 -6 28 28 VRB 3 6 30.28 1026 10 16 0.00 0.00
7:35 pm 19:35 Clear 50 10 23 -5 35 35 Calm 30.30 1026 10 16 0.00 0.00
7:55 pm 19:55 Clear 52 11 21 -6 30 30 Calm 30.31 1026 10 16 0.00 0.00
8:15 pm 20:15 Clear 50 10 23 -5 35 35 Calm 30.31 1026 10 16 0.00 0.00
8:35 pm 20:35 Clear 48 9 25 -4 40 40 Calm 30.31 1026 10 16 0.00 0.00
8:55 pm 20:55 Mostly Clear 48 9 25 -4 40 40 Calm 30.32 1027 10 16 0.00 0.00
9:15 pm 21:15 Mostly Clear 48 9 25 -4 40 40 E 5 7 30.31 1026 10 16 0.00 0.00
9:35 pm 21:35 Mostly Cloudy 45 7 28 -2 53 53 E 3 6 30.32 1027 10 16 0.00 0.00
9:55 pm 21:55 Cloudy 46 8 27 -3 46 46 Calm 30.33 1027 10 16 0.00 0.00
10:15 pm 22:15 Partly Cloudy 48 9 25 -4 40 40 E 5 7 30.32 1027 10 16 0.00 0.00
10:35 pm 22:35 Clear 48 9 27 -3 43 43 E 3 6 30.32 1027 10 16 0.00 0.00
10:55 pm 22:55 Mostly Clear 50 10 25 -4 37 37 ESE 5 7 30.32 1027 10 16 0.00 0.00
11:15 pm 23:15 Mostly Clear 50 10 25 -4 37 37 ESE 3 6 30.32 1027 10 16 0.00 0.00
11:35 pm 23:35 Mostly Cloudy 48 9 27 -3 43 43 ESE 3 6 30.32 1027 10 16 0.00 0.00
11:55 pm 23:55 Partly Cloudy 46 8 28 -2 50 50 E 3 6 30.33 1027 10 16 0.00 0.00

Powered by AerisWeather